CW1238 Weather Reports


Display with metric or nautical units.
time (UTC)temp
F
wind
direction
speed
MPH
gust
MPH
rain 1hr
in
rain 24hr
in
rain mn
in
humidity
%
barometer
mb
20260831014145 73 178 0.0 2.0 0.00 0.11 0.11 89 1049.2
20260831013641 73 253 2.0 3.0 0.00 0.11 0.11 89 1049.0
20260831013140 73 198 2.0 3.0 0.00 0.11 0.11 89 1049.0
20260831012635 73 249 3.0 4.0 0.00 0.11 0.11 89 1049.0
20260831012126 73 244 0.0 1.0 0.00 0.11 0.11 89 1048.9
20260831011624 73 215 4.0 7.0 0.00 0.11 0.11 89 1049.2
20260831011120 73 242 2.0 2.0 0.00 0.11 0.11 89 1049.2
20260831010616 73 213 2.0 4.0 0.00 0.11 0.11 89 1049.2
20260831010111 73 187 5.0 6.0 0.00 0.11 0.11 89 1049.3
20260831005610 73 154 4.0 4.0 0.00 0.11 0.11 89 1049.0
20260831005106 73 338 0.0 2.0 0.00 0.11 0.11 89 1049.2
20260831004602 74 233 2.0 4.0 0.00 0.11 0.11 89 1049.0
20260831004057 74 199 3.0 3.0 0.00 0.11 0.11 89 1049.0
20260831003554 74 202 2.0 3.0 0.00 0.11 0.11 89 1048.9
20260831003049 74 192 2.0 6.0 0.00 0.11 0.11 89 1048.9
20260831002548 74 253 4.0 7.0 0.00 0.11 0.11 89 1048.9
20260831002043 74 334 2.0 6.0 0.00 0.11 0.11 89 1049.3
20260831001538 74 235 2.0 3.0 0.00 0.11 0.11 89 1049.0
20260831001029 74 228 0.0 6.0 0.00 0.11 0.11 89 1048.9
20260831000525 75 199 3.0 4.0 0.00 0.11 0.11 88 1048.9
20260831000024 75 171 3.0 6.0 0.00 0.11 0.11 87 1048.9
20260830235518 75 134 1.0 6.0 0.00 0.11 0.11 87 1049.0
20260830235013 75 214 4.0 6.0 0.00 0.11 0.11 86 1049.2
20260830234508 75 195 3.0 8.0 0.00 0.11 0.11 86 1049.2
20260830234004 75 185 3.0 4.0 0.00 0.11 0.11 86 1048.9
20260830233459 75 199 3.0 6.0 0.00 0.11 0.11 87 1049.0
20260830232954 75 209 2.0 3.0 0.00 0.11 0.11 87 1048.8
20260830232451 75 199 3.0 3.0 0.00 0.11 0.11 87 1048.7
20260830231947 75 100 1.0 3.0 0.00 0.11 0.11 86 1048.9
20260830231442 75 230 1.0 3.0 0.00 0.11 0.11 86 1048.6
20260830230941 75 187 2.0 2.0 0.00 0.11 0.11 86 1048.9
20260830230437 75 255 2.0 3.0 0.00 0.11 0.11 86 1048.6
20260830225935 75 175 4.0 7.0 0.00 0.11 0.11 85 1048.9
20260830225431 75 229 6.0 8.0 0.00 0.11 0.11 85 1049.0
20260830224926 75 184 2.0 4.0 0.00 0.11 0.11 85 1048.5
20260830224424 76 256 3.0 7.0 0.00 0.11 0.11 85 1048.8
20260830223921 76 216 8.0 9.0 0.00 0.11 0.11 84 1048.6
20260830223418 76 222 7.0 10.0 0.00 0.11 0.11 84 1048.6
20260830222916 76 226 4.0 13.0 0.00 0.11 0.11 84 1048.6
20260830222412 76 174 5.0 7.0 0.00 0.11 0.11 84 1048.5
20260830221908 77 248 2.0 8.0 0.00 0.11 0.11 84 1048.5
20260830221404 77 252 5.0 7.0 0.00 0.11 0.11 84 1048.5
20260830220900 77 139 5.0 9.0 0.00 0.11 0.11 83 1048.3
20260830220359 77 250 3.0 8.0 0.00 0.11 0.11 83 1048.3
20260830215857 77 177 4.0 8.0 0.00 0.11 0.11 82 1048.6
20260830215356 77 191 6.0 7.0 0.00 0.11 0.11 84 1048.6
20260830214851 78 270 1.0 3.0 0.00 0.11 0.11 84 1048.5
20260830214347 78 195 2.0 8.0 0.00 0.11 0.11 83 1048.5
20260830213841 77 245 2.0 2.0 0.00 0.11 0.11 85 1048.4
20260830213336 77 230 1.0 6.0 0.00 0.11 0.11 85 1048.7
20260830212832 76 185 2.0 3.0 0.00 0.11 0.11 86 1048.5
20260830212328 76 194 3.0 6.0 0.00 0.11 0.11 88 1048.3
20260830211826 75 224 0.0 6.0 0.00 0.11 0.11 88 1048.4
20260830211321 75 260 3.0 6.0 0.00 0.11 0.11 89 1048.3
20260830210817 75 181 3.0 4.0 0.00 0.11 0.11 90 1048.3
20260830210316 75 213 1.0 4.0 0.00 0.11 0.11 91 1048.3
20260830205814 74 198 2.0 6.0 0.00 0.11 0.11 92 1048.4
20260830205313 73 233 0.0 2.0 0.00 0.11 0.11 94 1048.4
20260830204809 73 282 0.0 2.0 0.00 0.11 0.11 94 1048.4
20260830204307 73 147 1.0 1.0 0.00 0.11 0.11 95 1048.6
20260830203803 73 245 0.0 0.0 0.00 0.11 0.11 96 1048.5
20260830203259 72 217 0.0 1.0 0.00 0.11 0.11 96 1048.6
20260830202758 72 236 0.0 0.0 0.00 0.11 0.11 96 1048.6
20260830202254 72 254 1.0 1.0 0.05 0.11 0.11 96 1048.7
20260830201749 72 218 0.0 0.0 0.31 0.11 0.11 95 1048.5
20260830201243 72 262 2.0 3.0 0.38 0.10 0.10 95 1048.5
20260830200738 73 307 3.0 6.0 0.28 0.06 0.06 93 1048.0
20260830200238 73 236 2.0 2.0 0.24 0.04 0.04 91 1048.4
20260830195733 74 204 3.0 3.0 0.07 0.01 0.01 89 1048.9
20260830195231 75 196 3.0 6.0 0.00 0.00 0.00 86 1049.4
20260830194730 75 292 0.0 3.0 0.00 0.00 0.00 87 1049.3
20260830194225 76 201 4.0 6.0 0.00 0.00 0.00 85 1049.0
20260830193720 76 201 4.0 6.0 0.00 0.00 0.00 85 1049.3
20260830193214 77 206 3.0 4.0 0.00 0.00 0.00 82 1049.5
20260830192710 77 186 2.0 3.0 0.00 0.00 0.00 82 1048.7
20260830192205 77 184 2.0 3.0 0.00 0.00 0.00 81 1049.4
20260830191701 78 217 6.0 9.0 0.00 0.00 0.00 80 1049.3
20260830191155 79 232 4.0 4.0 0.00 0.00 0.00 79 1049.2
20260830190651 81 185 5.0 7.0 0.00 0.00 0.00 76 1048.8
20260830190146 80 230 7.0 8.0 0.00 0.00 0.00 76 1049.0
20260830185644 79 215 9.0 10.0 0.00 0.00 0.00 79 1049.0
20260830185140 78 208 4.0 7.0 0.00 0.00 0.00 80 1048.8
20260830184639 77 204 4.0 7.0 0.00 0.00 0.00 81 1049.3
20260830184133 77 151 8.0 10.0 0.00 0.00 0.00 81 1049.0
20260830183633 78 124 6.0 8.0 0.00 0.00 0.00 82 1048.9
20260830183129 77 203 3.0 4.0 0.00 0.00 0.00 82 1048.9
20260830182624 77 146 5.0 8.0 0.00 0.00 0.00 82 1048.9
20260830182120 78 267 3.0 4.0 0.00 0.00 0.00 81 1048.8
20260830181616 78 230 1.0 1.0 0.00 0.00 0.00 81 1048.9
20260830181116 77 159 1.0 2.0 0.00 0.00 0.00 81 1048.7
20260830180615 77 209 4.0 6.0 0.00 0.00 0.00 81 1048.6
20260830180110 78 183 5.0 6.0 0.00 0.00 0.00 81 1048.8
20260830175608 78 222 1.0 3.0 0.00 0.00 0.00 81 1048.9
20260830175104 78 202 1.0 3.0 0.00 0.00 0.00 80 1048.9
20260830174559 78 189 2.0 3.0 0.00 0.00 0.00 79 1048.8
20260830174054 78 210 0.0 1.0 0.00 0.00 0.00 81 1048.9
20260830173549 78 219 2.0 2.0 0.00 0.00 0.00 82 1048.8
20260830173044 78 219 2.0 2.0 0.00 0.00 0.00 82 1049.0
20260830172541 78 219 2.0 2.0 0.00 0.00 0.00 82 1048.9
20260830172037 76 315 1.0 2.0 0.00 0.00 0.00 84 1048.9
20260830171532 76 315 1.0 2.0 0.00 0.00 0.00 84 1048.9
20260830171032 76 315 1.0 2.0 0.00 0.00 0.00 84 1048.9
20260830170527 76 315 1.0 2.0 0.00 0.00 0.00 84 1048.9
20260830170026 76 315 1.0 2.0 0.00 0.00 0.00 84 1048.9
20260830165521 76 315 1.0 2.0 0.00 0.00 0.00 84 1048.8
20260830165017 76 315 1.0 2.0 0.00 0.00 0.00 84 1048.7
20260830164513 76 315 1.0 2.0 0.00 0.00 0.00 84 1048.6
20260830164009 76 315 1.0 2.0 0.00 0.00 0.00 84 1048.6
20260830163506 76 315 1.0 2.0 0.00 0.00 0.00 84 1049.0
20260830163004 76 315 1.0 2.0 0.00 0.00 0.00 84 1048.9
20260830162501 75 247 1.0 2.0 0.00 0.00 0.00 84 1049.2
20260830162001 75 247 1.0 2.0 0.00 0.00 0.00 84 1048.8
20260830161455 75 247 1.0 2.0 0.00 0.00 0.00 84 1048.8
20260830160950 75 247 1.0 2.0 0.00 0.00 0.00 84 1048.9
20260830160446 75 247 1.0 2.0 0.00 0.00 0.00 84 1049.2
20260830155940 75 238 2.0 2.0 0.00 0.00 0.00 84 1049.4
20260830155437 75 238 2.0 2.0 0.00 0.00 0.00 84 1049.5
20260830154933 76 179 4.0 6.0 0.00 0.00 0.00 83 1049.4
20260830154428 76 217 4.0 4.0 0.00 0.00 0.00 82 1049.4
20260830153925 76 199 2.0 3.0 0.00 0.00 0.00 82 1049.2
20260830153420 76 203 7.0 8.0 0.00 0.00 0.00 82 1048.9
20260830152919 77 234 2.0 8.0 0.00 0.00 0.00 82 1048.9
20260830152414 77 213 2.0 6.0 0.00 0.00 0.00 82 1048.8
20260830151907 77 213 2.0 6.0 0.00 0.00 0.00 81 1048.3
20260830151402 76 235 3.0 6.0 0.00 0.00 0.00 82 1048.0
20260830150857 76 182 3.0 4.0 0.00 0.00 0.00 83 1047.9
20260830150356 75 218 3.0 6.0 0.00 0.00 0.00 82 1047.9
20260830145851 75 206 4.0 4.0 0.00 0.00 0.00 83 1048.1
20260830145346 75 209 7.0 8.0 0.00 0.00 0.00 82 1048.1
20260830144841 76 227 4.0 8.0 0.00 0.00 0.00 82 1048.1
20260830144337 75 155 5.0 8.0 0.00 0.00 0.00 82 1047.8
20260830143833 75 212 5.0 6.0 0.00 0.00 0.00 84 1047.8
20260830143332 74 190 2.0 4.0 0.00 0.00 0.00 84 1047.9
20260830142826 74 262 4.0 6.0 0.00 0.00 0.00 85 1048.1
20260830142321 73 206 5.0 7.0 0.00 0.00 0.00 85 1048.1
20260830141816 74 217 4.0 4.0 0.00 0.00 0.00 85 1047.9
20260830141311 74 221 3.0 4.0 0.00 0.00 0.00 85 1048.0
20260830140807 74 226 1.0 4.0 0.00 0.00 0.00 85 1047.9
20260830140307 74 163 3.0 3.0 0.00 0.00 0.00 85 1047.9
20260830135801 73 242 2.0 2.0 0.00 0.00 0.00 86 1048.0
20260830135256 73 226 1.0 1.0 0.00 0.00 0.00 87 1048.0
20260830134752 72 237 3.0 3.0 0.00 0.00 0.00 88 1048.1
20260830134247 72 182 3.0 4.0 0.00 0.00 0.00 88 1048.1
20260830133743 72 234 3.0 4.0 0.00 0.00 0.00 88 1048.1
20260830133238 72 238 2.0 2.0 0.00 0.00 0.00 89 1047.7
20260830132734 71 230 0.0 0.0 0.00 0.00 0.00 89 1047.8
20260830132230 70 163 0.0 1.0 0.00 0.00 0.00 92 1048.0
20260830131728 70 163 0.0 1.0 0.00 0.00 0.00 92 1048.1
20260830131223 70 213 3.0 4.0 0.00 0.00 0.00 92 1048.2
20260830130718 70 213 1.0 2.0 0.00 0.00 0.00 92 1048.2
20260830130218 70 213 0.0 1.0 0.00 0.00 0.00 92 1048.1
20260830125718 70 153 3.0 3.0 0.00 0.00 0.00 92 1048.1
20260830125213 69 220 0.0 1.0 0.00 0.00 0.00 92 1048.1
20260830124710 69 224 0.0 1.0 0.00 0.00 0.00 92 1048.0
20260830124206 69 206 2.0 3.0 0.00 0.00 0.00 92 1048.1
20260830123703 68 262 1.0 2.0 0.00 0.00 0.00 95 1047.9
20260830123159 68 262 1.0 2.0 0.00 0.00 0.00 95 1047.9
20260830122655 68 262 1.0 2.0 0.00 0.00 0.00 95 1047.8
20260830122150 68 262 1.0 2.0 0.00 0.00 0.00 95 1047.9
20260830121646 68 262 1.0 2.0 0.00 0.00 0.00 95 1047.8
20260830121146 68 200 1.0 1.0 0.00 0.00 0.00 95 1047.9
20260830120641 68 229 0.0 0.0 0.00 0.00 0.00 95 1048.0
20260830120137 68 229 0.0 0.0 0.00 0.00 0.00 95 1048.0
20260830115633 68 156 0.0 1.0 0.00 0.00 0.00 95 1048.0
20260830115128 68 156 0.0 1.0 0.00 0.00 0.00 95 1048.1
20260830114625 68 156 0.0 1.0 0.00 0.00 0.00 95 1047.9
20260830114124 68 249 0.0 1.0 0.00 0.00 0.00 96 1048.0
20260830113615 68 239 1.0 2.0 0.00 0.00 0.00 96 1048.1
20260830113109 68 229 1.0 2.0 0.00 0.00 0.00 96 1048.0
20260830112606 68 215 1.0 2.0 0.00 0.00 0.00 96 1048.0
20260830112102 68 215 1.0 2.0 0.00 0.00 0.00 96 1048.1
20260830111557 68 215 1.0 2.0 0.00 0.00 0.00 96 1048.1
20260830111052 68 234 0.0 0.0 0.00 0.00 0.00 96 1048.0
20260830110547 68 251 0.0 1.0 0.00 0.00 0.00 96 1048.2
20260830110043 68 222 0.0 1.0 0.00 0.00 0.00 95 1048.2
20260830105537 68 222 0.0 1.0 0.00 0.00 0.00 95 1048.1
20260830105033 68 222 0.0 1.0 0.00 0.00 0.00 95 1048.2
20260830104530 68 222 0.0 1.0 0.00 0.00 0.00 95 1048.3
20260830104026 68 222 0.0 1.0 0.00 0.00 0.00 95 1048.1
20260830103521 68 222 0.0 1.0 0.00 0.00 0.00 95 1048.1
20260830103020 68 222 0.0 1.0 0.00 0.00 0.00 95 1048.0
20260830102519 68 222 0.0 1.0 0.00 0.00 0.00 95 1048.0
20260830102015 68 222 0.0 1.0 0.00 0.00 0.00 95 1047.8
20260830101510 69 235 0.0 1.0 0.00 0.00 0.00 95 1048.3
20260830101010 69 199 1.0 1.0 0.00 0.00 0.00 95 1048.4
20260830100509 69 228 2.0 3.0 0.00 0.00 0.00 95 1048.4
20260830100009 69 216 1.0 3.0 0.00 0.00 0.00 95 1048.5
20260830095504 69 231 1.0 1.0 0.00 0.00 0.00 95 1048.2
20260830094959 69 192 2.0 6.0 0.00 0.00 0.00 95 1048.0
20260830094455 69 229 2.0 3.0 0.00 0.00 0.00 94 1048.1
20260830093951 69 242 5.0 7.0 0.00 0.00 0.00 94 1048.2
20260830093446 69 185 1.0 2.0 0.00 0.00 0.00 95 1048.2
20260830092942 69 231 0.0 0.0 0.00 0.00 0.00 95 1048.1
20260830092437 69 231 0.0 0.0 0.00 0.00 0.00 95 1048.3
20260830091934 69 173 1.0 2.0 0.00 0.00 0.00 95 1048.2
20260830091434 69 173 1.0 2.0 0.00 0.00 0.00 95 1048.3
20260830090933 69 236 1.0 1.0 0.00 0.00 0.00 95 1048.2
20260830090429 69 236 1.0 1.0 0.00 0.00 0.00 95 1048.3
20260830085924 69 236 1.0 1.0 0.00 0.00 0.00 95 1048.2
20260830085418 69 189 4.0 6.0 0.00 0.00 0.00 95 1048.1
20260830084914 69 226 0.0 0.0 0.00 0.00 0.00 95 1048.1
20260830084409 69 226 0.0 0.0 0.00 0.00 0.00 95 1048.2
20260830083904 69 194 2.0 2.0 0.00 0.00 0.00 95 1048.2
20260830083400 69 194 2.0 2.0 0.00 0.00 0.00 95 1048.3
20260830082900 69 194 2.0 2.0 0.00 0.00 0.00 95 1048.2
20260830082355 69 231 1.0 1.0 0.00 0.00 0.00 95 1048.3
20260830081850 69 123 2.0 3.0 0.00 0.00 0.00 95 1048.3
20260830081344 69 219 1.0 1.0 0.00 0.00 0.00 95 1048.3
20260830080844 70 223 1.0 1.0 0.00 0.00 0.00 95 1048.5
20260830080341 70 223 1.0 3.0 0.00 0.00 0.00 95 1048.4
20260830075839 70 235 0.0 1.0 0.00 0.00 0.00 95 1048.5
20260830075335 70 235 0.0 1.0 0.00 0.00 0.00 95 1048.6
20260830074830 70 235 0.0 1.0 0.00 0.00 0.00 95 1048.5
20260830074326 70 235 0.0 1.0 0.00 0.00 0.00 95 1048.6
20260830073822 70 225 0.0 0.0 0.00 0.00 0.00 94 1048.5
20260830073318 70 225 0.0 0.0 0.00 0.00 0.00 94 1048.6
20260830072813 70 152 2.0 3.0 0.00 0.00 0.00 94 1048.4
20260830072308 70 152 2.0 3.0 0.00 0.00 0.00 94 1048.6
20260830071802 70 248 0.0 3.0 0.00 0.00 0.00 94 1048.3
20260830071301 70 220 3.0 3.0 0.00 0.00 0.00 94 1048.4
20260830070800 70 235 1.0 2.0 0.00 0.00 0.00 94 1048.3
20260830070255 70 137 3.0 3.0 0.00 0.00 0.00 94 1048.5
20260830065754 70 211 3.0 4.0 0.00 0.00 0.00 94 1048.5
20260830065249 70 200 2.0 3.0 0.00 0.00 0.00 94 1048.7
20260830064747 70 171 3.0 4.0 0.00 0.00 0.00 94 1048.7
20260830064243 70 191 4.0 8.0 0.00 0.00 0.00 94 1048.8
20260830063737 70 222 1.0 1.0 0.00 0.00 0.00 94 1048.8
20260830063231 70 222 1.0 1.0 0.00 0.00 0.00 94 1048.9
20260830062726 70 299 0.0 0.0 0.00 0.00 0.00 94 1049.2
20260830062221 70 299 0.0 0.0 0.00 0.00 0.00 94 1049.0
20260830061720 70 299 0.0 0.0 0.00 0.00 0.00 94 1049.3
20260830061215 70 299 0.0 0.0 0.00 0.00 0.00 94 1049.4
20260830060713 70 299 0.0 0.0 0.00 0.00 0.00 94 1049.3
20260830060209 70 225 1.0 2.0 0.00 0.00 0.00 94 1049.5
20260830055704 70 234 0.0 0.0 0.00 0.00 0.00 94 1049.3
20260830055201 70 240 1.0 2.0 0.00 0.00 0.00 94 1049.2
20260830054655 70 216 0.0 0.0 0.00 0.00 0.00 94 1049.2
20260830054150 70 216 0.0 0.0 0.00 0.00 0.00 94 1049.3
20260830053646 70 231 1.0 2.0 0.00 0.00 0.00 94 1049.3
20260830053145 70 268 1.0 1.0 0.00 0.00 0.00 94 1049.0
20260830052640 70 272 0.0 1.0 0.00 0.00 0.00 94 1049.0
20260830052136 70 178 2.0 3.0 0.00 0.00 0.00 94 1049.2
20260830051630 70 269 1.0 1.0 0.00 0.00 0.00 94 1049.4
20260830051126 70 269 1.0 1.0 0.00 0.00 0.00 94 1049.3
20260830050624 70 269 1.0 1.0 0.00 0.00 0.00 94 1049.4
20260830050120 70 269 1.0 1.0 0.00 0.00 0.00 94 1049.5
20260830045618 70 269 1.0 2.0 0.00 0.53 0.53 94 1049.3
20260830045114 70 240 1.0 2.0 0.00 0.53 0.53 94 1049.4
20260830044612 70 229 1.0 2.0 0.00 0.53 0.53 94 1049.5
20260830044108 70 219 1.0 2.0 0.00 0.53 0.53 94 1049.5
20260830043603 70 226 1.0 1.0 0.00 0.53 0.53 94 1049.4
20260830043102 70 86 2.0 2.0 0.00 0.53 0.53 94 1049.2
20260830042600 69 209 2.0 3.0 0.00 0.53 0.53 94 1049.4
20260830042055 69 226 1.0 1.0 0.00 0.53 0.53 94 1049.5
20260830041554 69 206 2.0 2.0 0.00 0.53 0.53 94 1049.5
20260830041053 69 206 1.0 1.0 0.00 0.53 0.53 94 1049.6
20260830040549 69 206 1.0 1.0 0.00 0.53 0.53 94 1049.6
20260830040045 69 228 0.0 0.0 0.00 0.53 0.53 93 1049.8
20260830035542 69 228 0.0 0.0 0.00 0.53 0.53 93 1049.7
20260830035038 69 244 1.0 1.0 0.00 0.53 0.53 93 1050.0
20260830034534 69 157 2.0 2.0 0.00 0.53 0.53 93 1049.8
20260830034033 69 157 2.0 2.0 0.00 0.53 0.53 93 1049.8
20260830033528 70 233 1.0 1.0 0.00 0.53 0.53 92 1049.9
20260830033024 70 166 0.0 1.0 0.00 0.53 0.53 92 1050.0
20260830032518 70 245 0.0 1.0 0.00 0.53 0.53 91 1050.0
20260830032013 70 147 3.0 6.0 0.00 0.53 0.53 91 1049.9
20260830031508 70 193 1.0 2.0 0.00 0.53 0.53 91 1050.0
20260830031003 70 195 0.0 1.0 0.00 0.53 0.53 90 1049.9
20260830030500 70 205 2.0 4.0 0.00 0.53 0.53 90 1049.8
20260830025959 71 86 2.0 3.0 0.00 0.53 0.53 89 1050.0
20260830025458 71 86 2.0 3.0 0.00 0.53 0.53 89 1049.9
20260830024957 71 86 2.0 3.0 0.00 0.53 0.53 89 1049.8
20260830024452 71 51 6.0 7.0 0.00 0.53 0.53 89 1050.0
20260830023949 71 51 6.0 7.0 0.00 0.53 0.53 89 1049.7
20260830023448 71 49 1.0 2.0 0.00 0.53 0.53 88 1049.8
20260830022943 71 105 1.0 2.0 0.00 0.53 0.53 87 1049.8
20260830022438 71 105 1.0 2.0 0.00 0.53 0.53 87 1049.7
20260830021933 72 230 0.0 2.0 0.00 0.53 0.53 87 1049.8
20260830021428 70 327 2.0 2.0 0.00 0.53 0.53 89 1049.8
20260830020927 70 327 2.0 2.0 0.00 0.53 0.53 89 1049.7
20260830020422 70 327 2.0 2.0 0.00 0.53 0.53 89 1049.7
20260830015918 70 327 2.0 2.0 0.00 0.53 0.53 89 1049.7
20260830015413 70 327 2.0 2.0 0.00 0.53 0.53 89 1049.6
20260830014908 70 23 1.0 2.0 0.00 0.53 0.53 89 1049.6